Wind_Speed
6 5 4 4 3 3 3 2 2 2 1 1 2 1 1 1 1 1 1 1 1 2 2 3 3 3 2 2 2 2 2 2 2 2 2 3 3 3 3 3 3 3 3
8 6 5 4 4 4 4 3 2 2 1 1 1 1 1 1 1 1 0 0 0 1 2 3 3 3 3 3 3 2 2 2 2 2 3 3 3 3 3 3 3 3 3
10 8 6 6 5 5 5 4 3 2 1 1 1 2 1 2 1 1 1 0 0 1 1 2 2 3 4 3 3 3 3 3 3 3 3 3 3 3 3 4 4 4 4
11 10 8 7 7 6 5 5 4 3 2 1 1 2 1 2 2 1 1 1 0 1 1 1 2 3 3 3 4 4 4 4 4 3 3 3 3 3 3 4 4 5 6
13 12 10 9 8 7 6 6 5 4 4 3 2 2 2 2 2 2 1 1 1 1 1 2 2 3 3 3 4 4 4 4 4 4 4 4 4 4 5 5 5 6 6
14 14 12 11 9 8 8 7 6 6 5 5 4 3 3 2 2 2 2 1 1 2 2 3 3 3 3 4 4 4 4 4 4 4 5 5 5 6 6 6 6 7 7
16 15 14 13 11 10 9 8 7 7 6 6 5 5 4 3 3 3 2 2 2 3 3 4 4 4 4 4 4 4 4 4 4 5 5 6 6 7 6 6 7 7 7
16 16 15 14 13 12 10 10 9 8 8 7 7 6 6 5 4 4 4 4 4 4 4 4 5 5 5 5 5 5 5 5 6 6 7 7 8 8 8 8 8 9 8
17 17 17 15 14 13 13 12 11 11 10 9 8 8 7 7 6 6 6 5 5 6 5 5 5 5 6 6 6 7 7 7 7 7 7 7 8 8 9 9 9 9 9
19 18 17 16 15 15 14 13 13 12 11 11 10 9 9 9 8 7 7 7 7 7 7 7 7 6 6 7 7 7 8 8 8 8 8 9 9 9 10 11 11 11 11
20 20 19 18 16 15 14 14 14 14 13 12 12 12 11 11 10 10 10 10 9 9 9 9 9 9 9 9 9 9 9 10 10 10 10 11 11 11 12 13 13 13 14
21 21 21 20 18 17 15 15 16 15 15 14 14 14 13 13 13 12 12 12 12 11 11 11 11 12 12 12 11 11 12 12 13 13 13 14 14 14 15 15 16 16 16
21 21 22 21 20 19 17 17 17 17 16 16 16 16 15 15 14 14 14 14 14 14 14 14 14 14 14 14 14 15 15 15 16 16 17 17 17 18 18 19 19 19 20
20 21 22 22 22 21 19 19 18 18 18 18 18 18 17 17 16 16 16 16 16 16 16 16 17 17 17 18 18 18 18 19 19 20 20 20 21 22 22 22 22 23 23
20 21 22 22 22 21 21 21 20 20 20 20 20 20 20 19 19 19 19 19 19 18 19 18 18 19 20 20 20 20 21 22 22 23 23 24 24 25 25 25 25 26 27
20 21 22 23 22 22 22 22 22 21 21 22 22 22 22 22 21 21 22 21 21 21 22 21 21 21 21 21 22 22 23 24 25 26 27 27 27 28 29 29 29 29 29
19 21 22 23 23 23 23 23 23 23 23 23 24 24 24 24 23 23 23 23 23 23 23 24 23 23 23 24 25 26 26 27 27 28 29 29 30 31 31 31 32 32 33
19 20 21 22 23 24 24 24 24 25 24 24 25 25 26 26 26 26 26 26 26 26 25 26 26 26 27 27 28 29 29 29 30 30 31 32 33 33 33 34 34 35 36
19 20 20 20 22 23 24 24 24 25 24 25 26 26 27 27 28 28 28 28 29 28 28 28 29 30 31 31 32 32 33 33 34 34 35 35 35 35 35 36 36 37 38
19 19 19 20 21 23 23 24 25 25 25 26 27 28 28 28 29 29 30 30 30 31 31 32 32 33 33 34 34 34 34 34 35 36 37 37 37 38 38 38 39 39 40
18 18 19 20 21 22 22 23 25 25 25 26 27 28 29 30 31 30 30 31 31 31 32 33 33 34 35 35 35 36 37 37 37 38 39 40 40 40 41 42 43 43 44
15 17 18 19 20 21 21 22 24 25 25 26 27 28 28 29 29 31 32 32 32 32 33 33 34 34 35 35 36 37 38 39 40 40 41 41 42 42 43 44 44 45 46
15 16 18 19 19 19 19 21 22 23 24 26 27 27 27 28 30 31 32 32 32 33 34 34 35 35 37 38 38 39 40 41 41 42 42 43 44 45 46 47 47 47 48
17 17 17 17 18 19 20 21 22 22 22 23 24 26 27 28 30 30 30 31 32 33 34 35 36 37 39 39 40 41 41 42 43 43 45 46 47 48 49 50 50 50 52
18 18 19 19 19 19 20 21 21 22 22 23 24 25 27 28 30 31 31 32 33 34 35 36 37 38 39 40 42 42 42 43 45 46 47 48 49 51 52 53 54 54 55
19 20 20 20 20 21 22 22 23 23 23 24 25 26 27 29 30 30 32 33 34 35 36 37 38 39 40 41 42 43 44 45 47 48 49 50 51 52 53 53 54 54 55
Wind_Direction
207 205 199 192 187 182 178 169 146 135 135 152 154 151 149 163 181 226 227 231 229 221 216 216 214 212 212 219 227 227 223 217 218 227 229 235 238 245 250 255 263 268 270
213 210 212 212 209 204 197 192 190 188 180 177 169 183 192 204 206 212 197 205 210 219 220 219 223 227 229 232 238 243 247 242 243 253 253 256 256 251 257 267 274 274 277
218 214 219 218 215 209 200 196 201 206 212 191 180 186 187 190 180 199 212 225 176 204 230 231 240 243 240 239 239 246 255 258 265 268 267 267 269 263 263 270 279 279 281
223 221 221 222 219 214 210 211 215 219 221 218 203 198 203 191 188 214 225 253 253 211 231 238 251 246 247 249 243 248 255 260 265 270 265 267 271 268 273 278 282 288 290
225 224 226 224 223 221 221 223 222 220 224 231 228 219 219 214 214 220 223 238 257 260 248 246 252 249 250 255 252 255 260 263 266 266 268 271 276 278 277 280 286 291 297
228 225 224 223 225 226 227 229 227 224 229 234 234 234 233 224 232 230 227 231 264 278 267 252 256 259 258 255 259 261 266 273 272 272 273 274 280 283 283 286 292 296 299
228 226 223 222 223 227 230 231 229 227 230 231 233 236 236 232 243 242 239 251 266 278 278 264 261 266 266 261 261 262 269 274 277 278 278 278 281 284 287 291 295 298 300
227 227 226 225 225 228 231 232 231 231 232 233 232 234 236 241 245 245 246 259 272 278 278 271 263 261 263 266 266 265 267 272 280 281 282 282 284 286 287 289 291 292 291
228 226 225 225 226 231 234 233 232 232 234 235 236 237 240 243 247 249 254 264 274 276 274 272 268 266 265 265 266 266 270 274 279 283 283 283 284 283 286 288 290 291 289
228 226 226 227 229 232 237 238 235 233 233 235 236 238 242 244 250 253 258 265 272 275 273 265 263 267 270 271 271 271 274 277 279 281 283 283 283 282 284 284 286 287 288
231 228 228 229 231 235 238 238 235 235 235 238 238 240 245 247 250 252 258 263 268 271 271 266 263 264 268 270 272 274 275 276 278 279 281 282 282 282 283 283 285 286 287
232 230 230 230 232 235 238 238 237 236 237 240 241 244 248 250 252 256 261 262 264 267 269 268 267 266 266 268 271 274 275 275 276 278 279 280 281 282 282 283 283 285 286
234 232 230 232 234 236 238 240 239 238 240 242 244 247 248 249 253 258 262 263 264 267 268 269 267 267 267 267 269 272 275 274 275 276 277 278 278 280 280 281 282 282 282
235 232 231 232 235 238 239 242 242 242 243 245 246 248 249 251 255 259 262 264 267 269 271 269 268 268 268 267 268 271 273 274 275 276 277 277 278 279 278 279 280 281 281
237 234 232 234 237 240 242 243 243 245 247 247 248 249 252 254 257 260 262 265 267 269 271 271 271 269 269 269 270 273 274 275 275 277 277 277 278 278 278 277 278 279 279
240 237 237 238 239 243 243 243 244 247 248 249 250 252 254 256 259 261 263 264 266 268 270 272 273 273 272 271 271 273 276 276 276 277 277 276 277 277 276 276 277 278 278
241 241 242 242 242 243 244 244 246 248 250 251 252 253 256 257 260 262 265 266 266 268 270 272 275 275 274 274 274 275 276 277 278 278 277 277 278 278 277 277 277 278 278
242 244 243 243 242 242 243 246 249 250 253 254 254 254 256 259 261 263 265 266 268 269 270 272 275 275 276 276 276 277 277 278 279 278 278 278 279 279 279 278 278 278 279
245 244 243 245 243 242 245 248 251 252 254 257 257 258 261 262 262 264 265 267 269 270 270 272 273 274 276 277 277 277 278 278 279 279 278 279 279 279 280 280 279 280 280
248 246 243 245 245 246 246 249 251 253 255 258 259 260 262 263 263 265 265 267 269 270 271 273 274 275 277 277 278 278 279 280 280 281 282 280 279 279 279 279 279 279 279
247 247 246 245 245 246 248 251 252 254 257 260 260 261 263 264 265 264 266 267 270 271 272 274 275 276 277 277 278 278 279 279 281 282 282 281 280 280 280 279 280 280 280
254 254 251 249 250 251 253 254 255 256 259 260 260 263 266 268 268 267 268 269 271 271 273 275 277 278 278 279 281 281 281 280 280 281 282 282 281 281 281 280 280 280 281
255 257 256 256 256 256 255 256 258 260 261 262 261 263 266 269 270 271 270 271 272 273 274 277 279 280 281 281 281 281 282 282 282 283 283 282 282 282 282 282 282 282 281
255 256 260 261 260 260 260 262 265 266 269 268 267 267 268 270 271 273 274 275 275 276 276 279 280 280 281 281 282 282 282 282 283 284 284 283 282 283 283 283 283 283 283
257 257 260 262 262 263 264 268 269 270 272 272 272 273 275 275 274 275 277 277 278 279 280 281 281 281 282 283 283 284 284 285 284 284 285 285 285 286 285 285 284 283 284
262 260 260 261 263 265 266 270 271 272 273 273 273 276 277 277 278 279 280 281 281 282 282 283 284 286 286 286 286 286 286 286 285 285 285 285 286 286 286 286 286 286 285
Height
5900 5900 5900 5901 5901 5901 5901 5901 5902 5902 5902 5902 5902 5902 5902 5902 5902 5902 5902 5901 5901 5901 5901 5902 5902 5902 5902 5902 5902 5903 5903 5903 5903 5903 5903 5903 5904 5904 5904 5904 5904 5904 5904
5899 5899 5900 5900 5901 5901 5901 5901 5902 5902 5902 5902 5902 5902 5902 5902 5902 5902 5902 5901 5901 5901 5901 5902 5902 5902 5902 5902 5902 5903 5903 5903 5903 5903 5903 5903 5903 5903 5904 5904 5904 5904 5904
5898 5898 5899 5900 5900 5900 5901 5901 5901 5902 5902 5902 5902 5901 5901 5902 5902 5902 5902 5902 5901 5901 5901 5901 5902 5902 5902 5902 5902 5902 5903 5903 5903 5903 5903 5903 5903 5903 5903 5903 5903 5903 5903
5896 5897 5898 5899 5899 5899 5900 5900 5901 5901 5901 5901 5901 5901 5901 5901 5901 5902 5902 5902 5901 5901 5901 5901 5901 5901 5902 5901 5902 5902 5902 5902 5902 5902 5902 5902 5902 5902 5902 5902 5902 5902 5902
5894 5895 5896 5897 5898 5899 5899 5899 5900 5900 5901 5901 5901 5901 5901 5901 5901 5901 5901 5901 5901 5901 5901 5901 5901 5901 5901 5901 5901 5901 5901 5902 5902 5902 5902 5902 5902 5902 5902 5902 5901 5901 5901
5892 5893 5894 5895 5896 5897 5898 5898 5899 5900 5900 5900 5900 5901 5901 5901 5901 5901 5901 5901 5901 5901 5901 5901 5900 5901 5901 5901 5901 5901 5901 5901 5901 5901 5901 5901 5901 5901 5901 5901 5900 5900 5900
5889 5890 5892 5893 5894 5895 5896 5897 5897 5898 5899 5899 5900 5900 5900 5900 5900 5900 5900 5901 5900 5900 5900 5900 5900 5900 5900 5900 5900 5900 5900 5900 5900 5900 5900 5900 5900 5900 5900 5900 5899 5899 5899
5886 5887 5889 5891 5892 5893 5894 5895 5896 5897 5897 5898 5898 5899 5900 5900 5900 5900 5900 5900 5900 5900 5899 5899 5899 5899 5899 5899 5899 5899 5900 5899 5899 5899 5899 5899 5899 5899 5898 5898 5898 5897 5897
5883 5884 5886 5888 5889 5891 5892 5892 5894 5895 5896 5896 5897 5898 5898 5899 5899 5899 5899 5899 5899 5899 5898 5898 5898 5898 5898 5898 5898 5898 5898 5898 5898 5898 5897 5897 5897 5897 5896 5896 5896 5895 5895
5879 5881 5883 5885 5886 5888 5889 5890 5891 5892 5893 5894 5895 5896 5897 5897 5897 5898 5898 5898 5897 5897 5897 5897 5897 5897 5897 5897 5897 5897 5897 5897 5896 5896 5896 5895 5895 5895 5894 5894 5893 5893 5893
5876 5878 5880 5882 5884 5885 5886 5887 5888 5889 5891 5892 5893 5894 5894 5895 5895 5896 5896 5896 5896 5896 5895 5895 5895 5895 5895 5895 5895 5895 5895 5895 5894 5894 5894 5893 5893 5892 5892 5891 5891 5890 5890
5872 5874 5876 5878 5880 5882 5883 5884 5885 5887 5888 5889 5890 5891 5892 5893 5893 5894 5894 5894 5894 5894 5893 5893 5893 5893 5893 5893 5893 5892 5892 5892 5892 5891 5891 5890 5890 5889 5889 5888 5887 5887 5886
5868 5870 5872 5875 5876 5878 5879 5881 5882 5883 5884 5886 5887 5888 5889 5890 5890 5891 5891 5891 5891 5891 5891 5890 5890 5890 5890 5890 5890 5889 5889 5889 5888 5888 5887 5887 5886 5885 5885 5884 5883 5882 5882
5864 5866 5868 5870 5872 5874 5875 5877 5878 5879 5881 5882 5883 5884 5885 5886 5887 5887 5888 5888 5887 5887 5887 5887 5887 5886 5886 5886 5886 5885 5885 5884 5884 5883 5883 5882 5881 5881 5880 5879 5878 5877 5876
5860 5862 5864 5866 5868 5870 5871 5872 5874 5875 5877 5878 5879 5880 5881 5882 5883 5883 5884 5884 5884 5884 5883 5883 5882 5882 5882 5881 5881 5880 5880 5879 5878 5878 5877 5876 5875 5874 5874 5873 5872 5871 5870
5856 5858 5860 5862 5863 5865 5866 5868 5870 5871 5872 5873 5875 5876 5877 5878 5878 5879 5879 5879 5879 5879 5879 5878 5877 5877 5876 5876 5875 5875 5874 5873 5872 5871 5870 5869 5868 5867 5866 5866 5865 5864 5863
5851 5853 5855 5857 5858 5860 5862 5863 5865 5866 5867 5868 5869 5870 5871 5872 5873 5873 5874 5874 5874 5874 5874 5873 5872 5871 5871 5870 5869 5868 5867 5866 5865 5864 5863 5862 5861 5860 5859 5857 5856 5855 5854
5847 5849 5850 5852 5853 5855 5857 5858 5860 5861 5862 5862 5864 5865 5866 5867 5867 5868 5868 5868 5868 5868 5867 5867 5866 5865 5864 5863 5862 5861 5860 5859 5857 5857 5855 5854 5853 5851 5850 5849 5847 5846 5845
5843 5844 5845 5847 5848 5850 5851 5853 5854 5855 5856 5857 5858 5859 5860 5860 5861 5861 5861 5861 5861 5861 5860 5860 5859 5858 5857 5856 5854 5853 5852 5850 5849 5848 5846 5845 5843 5842 5840 5839 5838 5836 5835
5839 5839 5840 5842 5843 5844 5846 5847 5848 5849 5850 5851 5852 5853 5853 5853 5854 5854 5854 5854 5853 5853 5853 5852 5851 5850 5849 5847 5846 5844 5843 5841 5840 5838 5836 5835 5833 5832 5830 5829 5827 5826 5824
5834 5835 5836 5837 5838 5839 5840 5841 5842 5843 5844 5845 5845 5846 5846 5846 5846 5846 5846 5846 5846 5845 5844 5843 5843 5842 5840 5838 5837 5835 5833 5832 5830 5828 5826 5824 5823 5821 5819 5817 5816 5814 5812
5831 5831 5832 5833 5833 5834 5835 5836 5836 5837 5838 5838 5838 5838 5839 5839 5839 5839 5838 5838 5837 5837 5836 5835 5833 5832 5831 5829 5827 5825 5823 5822 5820 5819 5816 5813 5811 5809 5807 5805 5804 5802 5800
5828 5828 5828 5828 5829 5829 5830 5830 5831 5831 5831 5831 5831 5831 5831 5831 5831 5831 5830 5829 5829 5828 5827 5826 5824 5823 5821 5820 5818 5815 5813 5811 5809 5807 5805 5802 5799 5797 5795 5792 5791 5788 5786
5824 5825 5825 5824 5824 5825 5825 5825 5825 5825 5825 5825 5824 5824 5824 5824 5823 5822 5822 5821 5820 5819 5818 5817 5815 5814 5812 5810 5807 5805 5802 5800 5797 5795 5793 5790 5787 5784 5782 5779 5777 5774 5771
5820 5820 5820 5820 5820 5820 5820 5820 5820 5819 5819 5819 5818 5817 5817 5816 5815 5814 5814 5813 5812 5811 5809 5807 5805 5803 5801 5798 5796 5793 5790 5788 5785 5783 5780 5777 5774 5770 5767 5765 5761 5758 5755
5816 5816 5815 5815 5815 5815 5815 5814 5814 5813 5812 5812 5811 5810 5810 5809 5808 5807 5805 5804 5803 5801 5799 5797 5795 5792 5790 5787 5784 5782 5779 5776 5772 5769 5766 5763 5760 5756 5753 5750 5745 5742 5739